Regional Weather Roundup
Issued by NWS

Home | Current Version | Previous Version | Graphics & Text | Print | Product List | Glossary On
Versions: 1 2 3 4 5 6 7 8 9 10 11 12 13 14 15 16 17 18 19 20 21 22 23 24 25 26 27 28 29 30 31 32 33 34 35 36 37 38 39 40 41 42 43 44 45 46 47 48 49 50
000
ASUS43 KIND 051009
RWRIN

WEATHER ROUNDUP FOR INDIANA
NATIONAL WEATHER SERVICE INDIANAPOLIS IN
500 AM EST THU MAR 05 2015

NOTE: "FAIR" INDICATES FEW OR NO CLOUDS BELOW 12,000 FEET WITH NO
SIGNIFICANT WEATHER AND/OR OBSTRUCTIONS TO VISIBILITY.

* - STATION DOES NOT REPORT WEATHER SUCH AS PRECIPITATION OR FOG.

+ - STATION NOT QUALITY CONTROLLED BY THE NATIONAL WEATHER SERVICE.
    USE DATA WITH CAUTION...ESPECIALLY DEWPOINT AND RELATIVE
    HUMIDITY OBSERVATIONS.

INZ001>003-010>013-019-020-051100-
NORTHWEST INDIANA

CITY           SKY/WX    TMP DP  RH WIND       PRES   REMARKS
KNOX *+          N/A      7 -11  43 NW5       30.32S WCI  -2
LA PORTE +     LGT SNOW  11   4  72 CALM      30.33R
MICHIGAN CITY+ FLURRIES  18   5  57 CALM      30.34S
MONTICELLO +   PTCLDY     5  -1  75 NW5       30.32S WCI  -4
RENSSELAER +   CLEAR      9   3  78 NW3       30.35R
VALPARAISO     CLEAR     12   1  61 NW6       30.32R WCI   3

$$

LMZ046-743>745-051100-
SOUTHERN LAKE MICHIGAN

STATION/POSITION TIME  TEMP WIND        PRES
                       AIR  DIR/SP/G
                 (UTC) (F)  (DEG/KT/KT) (MB)
MICHIGAN CITY    1000   16  320/ 12/ 14   N/A

$$

INZ004-005-014>016-021>024-051100-
NORTH CENTRAL INDIANA

CITY           SKY/WX    TMP DP  RH WIND       PRES   REMARKS
GOSHEN         CLOUDY    11   1  64 NE5       30.31R WCI   3
LOGANSPORT +   MOCLDY    12   3  67 NW6       30.32S WCI   3
PERU/GRISSOM   MOCLDY    14   5  66 NW8       30.29R WCI   3
ROCHESTER +    MOCLDY    16   7  67 CALM      30.32S
SOUTH BEND     CLOUDY    13   6  74 NE3       30.33R
WARSAW +       PTCLDY    12   3  67 CALM      30.31R

$$

INZ006>009-017-018-025>027-051100-
NORTHEAST INDIANA

CITY           SKY/WX    TMP DP  RH WIND       PRES   REMARKS
ANGOLA *+      CLEAR      3  -2  78 CALM      30.28S
AUBURN +       PTCLDY    14   1  57 CALM      30.31F
FORT WAYNE     MOCLDY    15   3  59 N10       30.31R WCI   2
HUNTINGTON +   MOCLDY    15   1  54 NE7       30.30R WCI   5

$$

INZ028-029-035-036-043>045-051>053-051100-
WEST CENTRAL INDIANA

CITY           SKY/WX    TMP DP  RH WIND       PRES   REMARKS
CRAWFORDSVL +  MOCLDY    12  -2  53 NW8       30.33R WCI   0
GREENCASTLE +  CLOUDY    16   1  53 N9        30.33R WCI   4
LAFAYETTE      PTCLDY     9   0  67 CALM      30.35R
TERRE HAUTE    CLOUDY    16   3  56 N7        30.36R WCI   6

$$

INZ030>032-037>040-046>048-054>057-064-065-051100-
CENTRAL INDIANA

CITY           SKY/WX    TMP DP  RH WIND       PRES   REMARKS
CP ATTERBURY + CLOUDY    21  10  63 N12       30.32R WCI   9
FISHERS *+     CLOUDY    16  10  79 N6        30.31  WCI   7
FRANKFORT +    MOCLDY    14   6  71 NW9       30.32F WCI   2
GREENWOOD *+   CLOUDY    18   5  57 N8        30.31R WCI   7
INDIANAPOLIS   CLOUDY    17   6  62 N12       30.31R WCI   4
-EAGLE CREEK   CLOUDY    16   6  65 N9        30.30S WCI   4
KOKOMO *+        N/A    N/A N/A N/A MISG        N/A
MARION +       MOCLDY    16   5  62 N6        30.29S WCI   8
MT COMFORT *+  CLOUDY    18   3  53 N10       30.30R WCI   6
SHELBYVILLE    CLOUDY    20   8  60 N10       30.29R WCI   9
ZIONSVILLE +   CLOUDY    16   6  67 NW8       30.30S WCI   5

$$

INZ033-034-041-042-049-050-058-059-051100-
EAST CENTRAL INDIANA

CITY           SKY/WX    TMP DP  RH WIND       PRES   REMARKS
MUNCIE         CLOUDY    18   9  68 NE8       30.28R WCI   8

$$

INZ060-061-067>069-081>083-085>088-051100-
SOUTHWEST INDIANA

CITY           SKY/WX    TMP DP  RH WIND       PRES   REMARKS
EVANSVILLE     CLOUDY    20   6  55 N12       30.33R WCI   8
HUNTINGBURG *+ CLOUDY    19   7  58 N12       30.31R WCI   7
WASHINGTON +   CLOUDY    18   2  48 N15       30.31F WCI   4

$$

INZ062-063-066-070>080-084-089>092-051100-
SOUTH CENTRAL AND SOUTHEAST INDIANA

CITY           SKY/WX    TMP DP  RH WIND       PRES   REMARKS
BLOOMINGTON    CLOUDY    17   6  62 N14       30.29S WCI   3
NORTH VERNON + CLOUDY    21  10  63 N10       30.28S WCI  10
SEYMOUR +      CLOUDY    23  10  58 N12       30.30R WCI  12

$$



USA.gov is the U.S. government's official web portal to all federal, state and local government web resources and services.